Temp
50 49 49 48 48 49 50 50 48 48 49 50 50 50 50 51 51 50 49 47 47 48 49 49 49 48 48 47 46 46 45 44 44 44 43 43 43 42 42 41 42 42 42 42 42 42 42 42 42 41 41 40 39 39 39 39 39 39 39 39 39 39 39 38 38 38 38 38 37
49 48 48 48 48 49 50 50 49 49 49 50 50 50 50 50 50 49 47 46 47 47 47 48 47 47 47 46 46 45 44 43 43 43 43 42 42 42 41 41 41 41 42 42 42 41 41 41 41 40 40 39 39 38 39 39 39 39 39 39 38 38 38 38 38 38 38 37 37
48 48 49 49 49 49 50 50 49 49 49 49 49 49 49 49 49 48 47 46 46 46 46 46 46 45 45 45 45 44 43 43 43 43 43 43 42 42 42 41 42 42 42 42 41 41 41 41 40 40 39 39 39 38 39 39 39 39 38 38 38 38 38 38 38 38 37 37 36
47 47 48 48 47 47 48 49 48 48 48 49 49 49 49 48 47 47 46 45 45 45 45 45 45 44 43 43 43 43 43 43 43 43 43 43 42 42 42 42 42 42 42 42 41 41 41 41 40 40 39 39 39 38 38 39 39 39 38 38 38 38 38 38 38 37 37 37 36
46 46 47 47 46 46 47 47 46 46 47 48 47 47 47 47 46 45 44 44 44 44 44 43 43 43 42 42 42 42 43 43 42 42 43 42 42 42 42 42 42 42 41 41 41 41 41 41 40 40 39 39 38 38 38 38 38 38 38 39 39 38 38 37 37 37 37 37 36
46 46 46 46 45 45 46 46 45 46 46 46 45 45 45 45 45 44 43 43 42 42 42 42 42 42 42 42 42 42 42 42 42 42 42 42 42 42 42 42 42 41 41 40 40 41 41 40 40 40 39 39 38 38 37 38 37 37 37 37 37 37 37 36 37 36 35 34 33
46 46 46 46 46 46 46 45 45 45 45 45 43 42 42 42 42 41 41 41 41 41 41 41 41 42 42 42 42 42 42 42 42 42 42 41 41 41 41 41 41 41 40 40 39 39 39 39 39 38 38 37 37 36 35 36 35 34 34 34 35 35 35 33 34 33 32 30 30
46 46 46 46 46 45 45 44 44 44 44 44 42 41 40 40 40 40 40 40 40 40 40 40 41 41 42 42 42 42 41 41 41 41 40 40 40 40 41 41 41 40 40 39 38 38 38 38 38 37 37 37 37 36 33 32 32 31 31 31 32 32 31 30 30 30 29 29 29
46 45 45 45 45 44 44 43 43 42 42 41 40 39 39 39 39 39 39 39 38 39 39 40 41 41 41 41 41 41 41 40 40 40 40 40 41 41 41 41 40 39 39 39 38 37 37 37 37 37 37 37 36 35 33 32 31 30 30 31 31 31 30 29 29 29 29 29 29
44 44 44 44 43 43 43 42 42 41 40 40 39 38 38 37 38 38 38 38 38 38 39 40 41 41 41 40 40 40 41 41 41 40 40 41 40 40 40 40 39 38 38 38 38 37 37 37 37 36 36 35 34 33 33 32 31 31 30 31 30 29 29 29 29 29 29 29 29
43 43 43 43 42 42 42 42 41 41 40 39 39 38 37 37 37 37 37 37 37 38 38 39 40 40 41 41 41 41 41 41 41 41 40 41 40 40 40 39 38 38 38 38 38 38 37 37 36 36 35 35 33 33 32 31 30 30 29 29 29 28 29 29 28 28 28 28 28
42 42 42 42 41 41 41 41 41 40 39 39 39 38 37 37 37 37 37 37 37 37 38 39 39 39 40 40 40 40 40 41 41 41 40 40 41 41 40 40 39 38 38 38 38 37 37 36 35 35 34 33 33 32 31 31 30 29 29 28 28 28 28 28 28 28 27 27 28
41 41 41 40 40 40 40 40 40 39 39 38 38 37 37 36 36 36 37 37 38 38 38 39 39 38 38 39 39 40 40 40 40 40 40 41 41 41 41 40 40 39 39 38 37 36 36 35 35 34 33 33 32 31 31 30 29 28 28 28 27 27 27 27 27 27 27 26 27
40 40 40 39 39 39 39 39 39 39 38 37 37 36 36 36 36 36 36 36 37 37 38 38 38 38 38 38 38 38 39 39 40 40 40 41 41 41 41 41 40 40 39 37 36 36 35 35 34 33 33 32 31 30 30 29 28 28 28 27 27 27 27 27 27 26 26 26 26
39 39 38 38 38 38 38 38 39 38 37 37 36 36 36 36 35 35 36 36 36 37 37 37 37 37 38 39 39 38 38 38 38 39 40 41 41 41 41 40 39 39 38 37 35 35 35 34 33 33 32 31 30 29 28 28 27 27 27 27 26 26 26 26 25 25 24 24 24
38 38 37 37 37 37 37 37 38 37 37 36 36 35 35 36 36 36 36 36 36 36 36 35 36 36 37 38 38 38 38 37 38 38 39 39 39 39 39 39 38 37 36 36 35 34 34 33 32 31 31 30 29 28 27 27 26 26 26 26 25 25 25 24 24 23 23 23 22
37 37 37 36 36 36 36 36 36 36 36 35 35 35 35 36 36 36 36 36 35 35 35 35 35 35 35 36 37 37 37 37 38 38 38 38 38 38 37 37 36 36 35 34 33 33 32 32 31 30 30 29 28 27 26 26 25 25 25 24 24 24 24 24 23 22 22 22 22
36 36 36 36 36 36 36 35 35 35 35 35 35 35 35 36 35 35 35 35 35 35 35 35 35 35 35 35 36 36 36 37 37 38 38 38 38 37 37 37 36 35 33 32 32 32 32 31 30 29 28 27 27 26 25 25 24 24 23 23 23 23 22 22 22 21 21 21 21
36 35 35 36 36 36 35 35 35 35 35 35 35 35 35 35 35 35 35 35 35 35 34 34 35 35 35 35 36 36 36 36 37 37 38 38 38 37 37 36 35 33 32 31 31 31 31 30 30 29 28 27 26 25 24 23 23 22 22 22 22 22 22 21 21 21 21 21 21
35 35 36 36 36 36 35 35 36 36 36 35 35 34 34 35 35 35 35 35 35 34 34 33 34 34 34 35 35 36 37 37 37 38 38 38 37 36 36 34 33 32 31 31 31 31 30 29 29 28 28 27 26 24 23 22 22 22 21 21 22 22 21 21 21 20 20 20 21
35 35 36 36 36 35 35 36 36 36 35 34 34 34 34 34 34 34 34 34 34 34 33 33 32 32 33 33 34 34 35 36 37 36 35 35 33 33 32 32 32 31 31 31 30 29 28 27 27 26 26 25 24 24 23 22 21 21 21 21 21 21 21 21 21 20 20 20 20
35 35 36 36 35 35 35 35 35 34 34 33 33 33 33 33 33 33 33 33 33 32 32 32 32 32 31 31 32 32 32 33 33 32 31 30 29 28 28 28 28 28 27 27 26 25 25 25 24 24 24 23 23 23 23 22 22 21 21 21 21 21 21 20 20 20 20 20 20
34 35 35 35 35 35 34 34 33 33 32 32 32 32 32 32 32 32 32 32 31 31 31 31 31 31 30 30 30 30 29 30 30 29 28 27 26 25 25 26 25 25 25 24 24 23 23 23 23 23 22 22 22 22 22 23 22 22 21 20 20 20 19 19 19 19 19 19 20
34 34 34 35 35 34 34 33 33 32 32 32 32 32 31 31 31 30 30 30 30 30 30 30 30 30 30 30 29 29 28 28 28 28 28 26 25 24 25 24 24 23 24 24 26 26 25 24 23 22 21 21 21 22 22 23 22 22 21 20 20 19 19 18 18 19 19 19 20
33 33 33 34 34 34 33 32 32 31 31 31 31 31 30 30 30 30 29 29 29 29 29 29 29 29 30 29 29 28 28 28 27 27 27 26 25 24 24 23 23 23 25 27 31 33 33 30 27 24 22 21 21 22 23 24 23 22 21 20 20 20 19 19 19 19 19 19 19
32 32 33 33 33 33 32 31 31 30 30 30 29 29 29 30 29 29 29 29 29 30 30 30 29 29 29 28 28 28 28 28 27 27 26 25 25 25 24 23 23 25 27 31 34 36 37 36 34 29 24 21 22 22 23 22 22 21 20 20 20 20 19 19 19 19 19 19 19
31 32 32 33 32 32 31 31 30 29 29 29 29 29 29 29 29 28 28 29 29 30 30 30 30 29 28 28 28 28 28 27 27 26 26 25 25 25 24 24 24 26 29 33 35 37 37 38 38 35 30 23 23 23 22 21 20 20 19 19 19 19 19 19 19 19 20 20 19
31 31 31 31 31 31 31 30 29 29 29 29 29 29 29 29 28 28 29 29 29 30 31 31 30 29 28 28 28 28 27 26 26 26 26 25 24 24 24 24 24 26 30 35 37 37 38 38 39 38 35 28 24 22 22 21 20 19 18 18 18 19 19 19 19 20 21 21 21
30 31 31 30 31 31 31 30 29 29 29 29 29 29 29 29 29 29 29 30 31 31 31 31 30 29 28 28 27 27 26 26 25 25 25 24 24 24 24 24 24 26 31 37 38 38 38 39 38 38 38 36 27 23 21 21 20 19 18 18 19 20 20 20 20 20 20 21 21
30 30 30 30 30 30 30 30 29 29 29 28 29 29 29 29 29 29 30 31 31 32 32 31 30 29 28 28 26 26 25 25 25 24 24 24 24 24 24 25 24 27 32 37 38 38 38 38 38 38 38 38 31 25 21 19 19 18 18 19 19 20 20 20 20 20 21 21 20
29 29 29 29 29 30 30 30 29 29 29 29 29 30 30 30 30 31 31 31 32 32 32 31 30 30 29 27 26 25 25 25 24 24 23 23 24 24 24 24 24 27 31 37 37 38 38 38 38 37 37 37 32 26 21 19 18 18 18 19 19 19 20 20 20 20 21 21 20
29 28 28 28 29 29 30 30 29 29 29 29 30 31 32 31 32 32 32 33 33 33 32 31 31 30 28 27 25 25 24 24 24 23 23 23 23 23 23 23 24 26 31 37 37 37 37 37 37 37 36 36 32 26 21 18 17 17 17 18 19 19 20 21 21 21 21 21 20
28 28 28 28 28 29 29 29 29 28 29 31 32 33 33 33 32 32 33 34 34 33 32 32 31 30 28 27 26 25 25 24 24 23 23 22 22 22 23 23 24 28 33 37 37 37 37 37 37 36 35 34 29 23 19 17 16 16 16 17 19 20 22 23 23 23 23 22 21
28 28 28 28 28 29 29 29 28 28 29 32 33 32 32 32 32 32 33 34 33 32 32 31 30 29 28 26 25 25 24 23 23 22 22 22 22 22 23 23 23 28 34 36 37 37 37 37 36 35 34 31 26 21 17 16 16 16 17 18 19 20 22 23 23 23 23 22 21
28 28 28 28 28 29 28 28 27 28 29 31 31 31 30 31 32 32 32 32 32 31 30 29 28 27 25 24 24 24 24 23 23 23 22 21 21 22 22 22 23 28 34 36 37 37 37 36 35 34 32 28 22 18 17 16 17 17 18 19 19 21 21 22 21 21 21 21 21
28 28 28 28 28 28 28 27 27 28 29 30 29 30 30 30 31 32 32 31 30 29 28 27 26 26 25 24 24 23 23 23 23 23 22 21 21 21 21 22 22 26 31 36 36 37 36 36 34 33 30 25 20 17 16 16 17 17 18 18 19 20 20 20 20 19 19 19 20
28 28 28 28 28 28 28 27 27 28 28 29 29 30 30 31 31 31 31 29 29 28 27 27 27 27 26 25 24 24 23 23 23 23 22 21 20 20 21 21 21 23 28 34 36 36 36 36 34 32 28 22 19 17 17 17 17 17 17 18 18 18 19 19 18 18 18 19 21
28 28 28 28 28 28 28 28 28 28 28 29 29 30 30 31 31 30 29 28 29 29 29 29 29 28 27 26 25 24 24 23 22 22 21 21 20 20 20 20 20 22 26 33 36 36 36 36 34 31 27 21 18 17 17 17 17 17 17 17 17 17 17 17 17 17 18 19 23
28 28 28 29 29 29 28 28 28 28 29 29 29 30 30 30 30 29 29 27 29 30 31 31 30 29 28 26 25 24 23 22 22 21 20 20 20 21 21 20 20 21 25 31 35 36 36 36 35 32 28 21 18 17 17 17 16 16 16 16 16 17 17 17 16 17 18 19 25
28 28 28 29 29 29 29 29 28 29 29 29 29 29 29 29 29 29 29 28 30 31 31 31 30 28 27 26 24 23 22 21 20 20 19 20 21 24 24 19 19 20 23 29 34 36 36 36 35 33 29 21 17 16 16 16 16 16 16 16 17 18 18 18 18 18 19 19 23
29 29 29 29 29 29 29 29 28 28 28 28 29 29 29 29 28 28 29 30 31 31 30 29 28 27 26 25 23 22 21 21 20 20 19 20 20 23 23 18 18 18 20 25 32 35 35 35 35 34 31 23 18 16 16 17 17 17 17 17 18 19 20 19 19 20 20 20 21
MSLP
1023.81 1023.77 1023.73 1023.73 1023.65 1023.57 1023.53 1023.49 1023.45 1023.41 1023.37 1023.33 1023.29 1023.21 1023.09 1022.97 1022.89 1022.85 1022.85 1022.85 1022.77 1022.73 1022.65 1022.57 1022.53 1022.45 1022.37 1022.25 1022.13 1022.13 1022.13 1022.13 1022.09 1022.09 1022.13 1022.13 1022.09 1022.05 1022.01 1022.01 1021.97 1021.93 1021.85 1021.73 1021.61 1021.57 1021.57 1021.61 1021.65 1021.69 1021.73 1021.81 1021.85 1021.89 1021.93 1022.01 1022.01 1021.89 1021.85 1021.81 1021.73 1021.65 1021.57 1021.45 1021.37 1021.29 1021.17 1021.17 1021.17
1023.97 1023.89 1023.85 1023.81 1023.73 1023.65 1023.57 1023.61 1023.57 1023.53 1023.49 1023.45 1023.45 1023.41 1023.29 1023.25 1023.25 1023.21 1023.17 1023.17 1023.13 1023.05 1022.97 1022.85 1022.81 1022.73 1022.65 1022.53 1022.49 1022.45 1022.45 1022.41 1022.33 1022.29 1022.29 1022.29 1022.29 1022.29 1022.25 1022.21 1022.13 1022.05 1021.97 1021.85 1021.73 1021.69 1021.69 1021.73 1021.73 1021.77 1021.81 1021.85 1021.85 1021.81 1021.81 1021.81 1021.81 1021.73 1021.69 1021.73 1021.73 1021.69 1021.61 1021.57 1021.49 1021.45 1021.41 1021.33 1021.29
1024.09 1024.01 1023.97 1023.89 1023.85 1023.81 1023.85 1023.89 1023.85 1023.73 1023.73 1023.69 1023.65 1023.57 1023.53 1023.53 1023.57 1023.57 1023.49 1023.45 1023.41 1023.29 1023.21 1023.17 1023.13 1023.05 1023.01 1022.89 1022.81 1022.77 1022.73 1022.65 1022.57 1022.53 1022.49 1022.45 1022.45 1022.41 1022.37 1022.29 1022.25 1022.13 1022.05 1022.01 1021.85 1021.81 1021.77 1021.73 1021.73 1021.73 1021.77 1021.73 1021.73 1021.65 1021.61 1021.57 1021.53 1021.49 1021.49 1021.57 1021.57 1021.61 1021.61 1021.61 1021.57 1021.53 1021.45 1021.45 1021.37
1024.25 1024.17 1024.17 1024.13 1024.13 1024.13 1024.09 1024.09 1024.05 1024.01 1023.93 1023.85 1023.85 1023.77 1023.73 1023.73 1023.77 1023.73 1023.73 1023.65 1023.57 1023.49 1023.45 1023.45 1023.41 1023.33 1023.29 1023.21 1023.17 1023.09 1023.01 1022.93 1022.81 1022.73 1022.73 1022.61 1022.57 1022.49 1022.45 1022.33 1022.25 1022.13 1022.05 1021.97 1021.89 1021.81 1021.73 1021.73 1021.65 1021.65 1021.69 1021.69 1021.65 1021.65 1021.61 1021.57 1021.49 1021.45 1021.45 1021.53 1021.57 1021.57 1021.57 1021.57 1021.57 1021.57 1021.53 1021.49 1021.41
1024.41 1024.37 1024.33 1024.33 1024.29 1024.29 1024.29 1024.25 1024.17 1024.17 1024.13 1024.09 1024.01 1023.97 1023.89 1023.89 1023.85 1023.85 1023.77 1023.73 1023.69 1023.65 1023.61 1023.57 1023.49 1023.45 1023.37 1023.33 1023.29 1023.25 1023.17 1023.13 1023.01 1022.97 1022.85 1022.81 1022.69 1022.57 1022.45 1022.37 1022.21 1022.13 1022.01 1021.93 1021.85 1021.81 1021.73 1021.69 1021.65 1021.65 1021.69 1021.69 1021.73 1021.73 1021.69 1021.65 1021.57 1021.49 1021.53 1021.57 1021.57 1021.57 1021.57 1021.61 1021.61 1021.61 1021.57 1021.49 1021.45
1024.57 1024.53 1024.49 1024.45 1024.45 1024.41 1024.33 1024.29 1024.29 1024.29 1024.25 1024.21 1024.17 1024.09 1024.05 1024.01 1023.93 1023.85 1023.81 1023.73 1023.69 1023.57 1023.49 1023.41 1023.33 1023.29 1023.29 1023.25 1023.25 1023.21 1023.17 1023.17 1023.13 1023.05 1022.97 1022.85 1022.73 1022.57 1022.49 1022.37 1022.21 1022.13 1022.01 1021.97 1021.89 1021.85 1021.73 1021.73 1021.73 1021.73 1021.77 1021.77 1021.77 1021.77 1021.73 1021.69 1021.61 1021.61 1021.61 1021.65 1021.65 1021.65 1021.65 1021.69 1021.65 1021.61 1021.57 1021.53 1021.49
1024.69 1024.61 1024.57 1024.53 1024.49 1024.49 1024.45 1024.41 1024.37 1024.33 1024.29 1024.29 1024.29 1024.25 1024.17 1024.09 1024.01 1023.89 1023.77 1023.65 1023.49 1023.37 1023.25 1023.17 1023.13 1023.05 1023.01 1023.01 1023.01 1023.05 1023.05 1023.09 1023.05 1023.01 1022.93 1022.85 1022.77 1022.65 1022.53 1022.41 1022.29 1022.17 1022.09 1022.01 1022.01 1021.93 1021.85 1021.77 1021.77 1021.77 1021.81 1021.81 1021.81 1021.81 1021.81 1021.73 1021.73 1021.73 1021.73 1021.73 1021.73 1021.69 1021.69 1021.73 1021.73 1021.65 1021.57 1021.57 1021.49
1024.73 1024.73 1024.69 1024.65 1024.61 1024.57 1024.57 1024.49 1024.45 1024.41 1024.37 1024.33 1024.29 1024.29 1024.21 1024.09 1023.97 1023.85 1023.69 1023.57 1023.45 1023.29 1023.21 1023.09 1023.01 1022.93 1022.85 1022.85 1022.85 1022.85 1022.89 1022.89 1022.89 1022.85 1022.85 1022.81 1022.73 1022.61 1022.53 1022.45 1022.29 1022.25 1022.17 1022.13 1022.09 1022.01 1021.89 1021.81 1021.81 1021.81 1021.85 1021.81 1021.81 1021.81 1021.85 1021.85 1021.81 1021.81 1021.81 1021.81 1021.73 1021.73 1021.73 1021.73 1021.69 1021.65 1021.57 1021.57 1021.45
1024.81 1024.77 1024.73 1024.73 1024.69 1024.65 1024.61 1024.57 1024.49 1024.45 1024.45 1024.41 1024.37 1024.29 1024.21 1024.09 1023.97 1023.85 1023.73 1023.61 1023.57 1023.45 1023.29 1023.25 1023.17 1023.09 1023.01 1022.97 1022.89 1022.85 1022.85 1022.85 1022.81 1022.77 1022.73 1022.69 1022.65 1022.57 1022.49 1022.41 1022.33 1022.29 1022.21 1022.13 1022.09 1022.01 1021.93 1021.85 1021.81 1021.81 1021.81 1021.81 1021.81 1021.81 1021.81 1021.85 1021.85 1021.85 1021.85 1021.81 1021.77 1021.73 1021.73 1021.69 1021.65 1021.57 1021.53 1021.45 1021.41
1024.97 1024.89 1024.85 1024.81 1024.77 1024.73 1024.61 1024.57 1024.53 1024.53 1024.49 1024.45 1024.37 1024.29 1024.21 1024.13 1024.01 1023.89 1023.85 1023.73 1023.69 1023.61 1023.49 1023.41 1023.29 1023.25 1023.17 1023.13 1023.01 1022.97 1022.89 1022.85 1022.77 1022.73 1022.65 1022.61 1022.57 1022.49 1022.45 1022.37 1022.29 1022.25 1022.17 1022.13 1022.09 1022.01 1021.97 1021.85 1021.85 1021.81 1021.77 1021.77 1021.73 1021.73 1021.77 1021.81 1021.85 1021.85 1021.81 1021.81 1021.81 1021.73 1021.73 1021.65 1021.57 1021.57 1021.53 1021.45 1021.45
1025.05 1025.01 1024.93 1024.85 1024.85 1024.73 1024.61 1024.57 1024.57 1024.53 1024.45 1024.45 1024.33 1024.29 1024.21 1024.17 1024.05 1024.01 1023.89 1023.81 1023.81 1023.73 1023.61 1023.49 1023.41 1023.29 1023.25 1023.17 1023.09 1023.01 1022.97 1022.85 1022.85 1022.77 1022.69 1022.61 1022.53 1022.45 1022.33 1022.29 1022.25 1022.17 1022.13 1022.09 1022.05 1022.01 1021.97 1021.89 1021.85 1021.81 1021.73 1021.73 1021.73 1021.73 1021.77 1021.85 1021.85 1021.85 1021.85 1021.85 1021.85 1021.81 1021.73 1021.69 1021.65 1021.61 1021.57 1021.53 1021.49
1025.13 1025.05 1024.97 1024.89 1024.85 1024.73 1024.69 1024.61 1024.57 1024.49 1024.45 1024.41 1024.33 1024.25 1024.17 1024.17 1024.09 1024.01 1023.93 1023.85 1023.85 1023.73 1023.61 1023.53 1023.45 1023.33 1023.29 1023.21 1023.09 1023.01 1022.97 1022.93 1022.85 1022.77 1022.69 1022.61 1022.49 1022.41 1022.29 1022.25 1022.17 1022.13 1022.05 1022.01 1021.97 1021.93 1021.93 1021.93 1021.85 1021.81 1021.73 1021.69 1021.69 1021.73 1021.81 1021.85 1021.93 1021.97 1021.93 1021.89 1021.89 1021.85 1021.81 1021.73 1021.69 1021.65 1021.61 1021.57 1021.49
1025.17 1025.09 1025.01 1024.93 1024.85 1024.77 1024.73 1024.65 1024.57 1024.49 1024.45 1024.41 1024.33 1024.25 1024.17 1024.13 1024.05 1024.01 1023.97 1023.89 1023.85 1023.73 1023.57 1023.49 1023.41 1023.33 1023.29 1023.17 1023.09 1023.01 1022.93 1022.89 1022.85 1022.77 1022.69 1022.61 1022.49 1022.37 1022.29 1022.17 1022.09 1022.01 1021.97 1021.89 1021.85 1021.85 1021.85 1021.85 1021.85 1021.81 1021.73 1021.69 1021.73 1021.77 1021.85 1021.89 1021.97 1022.01 1022.01 1021.97 1021.93 1021.85 1021.81 1021.73 1021.69 1021.65 1021.61 1021.57 1021.53
1025.17 1025.13 1025.01 1024.97 1024.89 1024.81 1024.73 1024.65 1024.57 1024.53 1024.45 1024.41 1024.29 1024.25 1024.17 1024.13 1024.05 1024.01 1023.97 1023.89 1023.85 1023.73 1023.57 1023.49 1023.41 1023.29 1023.21 1023.13 1023.05 1023.01 1022.93 1022.85 1022.77 1022.73 1022.65 1022.57 1022.45 1022.33 1022.25 1022.13 1022.01 1021.97 1021.89 1021.85 1021.85 1021.81 1021.77 1021.81 1021.81 1021.77 1021.73 1021.77 1021.77 1021.85 1021.89 1021.93 1022.01 1022.01 1021.97 1021.93 1021.89 1021.85 1021.77 1021.73 1021.69 1021.65 1021.61 1021.57 1021.57
1025.21 1025.17 1025.05 1025.01 1024.93 1024.85 1024.77 1024.73 1024.61 1024.53 1024.45 1024.41 1024.29 1024.21 1024.17 1024.09 1024.01 1023.97 1023.93 1023.85 1023.81 1023.69 1023.57 1023.53 1023.41 1023.29 1023.17 1023.05 1023.01 1022.89 1022.85 1022.81 1022.73 1022.69 1022.57 1022.49 1022.41 1022.29 1022.17 1022.09 1022.01 1021.93 1021.89 1021.85 1021.85 1021.81 1021.73 1021.73 1021.77 1021.81 1021.81 1021.85 1021.85 1021.93 1021.97 1021.97 1022.01 1021.97 1021.89 1021.85 1021.81 1021.77 1021.73 1021.69 1021.69 1021.65 1021.65 1021.61 1021.57
1025.21 1025.17 1025.09 1025.01 1024.93 1024.85 1024.81 1024.73 1024.65 1024.57 1024.45 1024.41 1024.29 1024.17 1024.13 1024.05 1024.01 1023.93 1023.89 1023.81 1023.77 1023.69 1023.61 1023.57 1023.45 1023.29 1023.17 1023.01 1022.93 1022.85 1022.81 1022.73 1022.69 1022.61 1022.57 1022.45 1022.37 1022.25 1022.17 1022.09 1022.01 1021.97 1021.93 1021.89 1021.85 1021.85 1021.81 1021.77 1021.81 1021.85 1021.89 1021.93 1021.93 1021.97 1022.01 1021.97 1021.93 1021.85 1021.81 1021.73 1021.73 1021.69 1021.69 1021.65 1021.65 1021.65 1021.65 1021.61 1021.61
1025.29 1025.17 1025.13 1025.05 1025.01 1024.93 1024.85 1024.77 1024.69 1024.57 1024.49 1024.37 1024.29 1024.21 1024.13 1024.01 1023.97 1023.93 1023.85 1023.81 1023.73 1023.73 1023.65 1023.57 1023.45 1023.29 1023.21 1023.09 1022.97 1022.85 1022.81 1022.73 1022.69 1022.61 1022.57 1022.45 1022.33 1022.25 1022.17 1022.13 1022.01 1021.97 1021.93 1021.89 1021.85 1021.85 1021.85 1021.81 1021.85 1021.89 1021.97 1021.97 1021.97 1021.97 1021.93 1021.85 1021.85 1021.73 1021.69 1021.65 1021.61 1021.61 1021.61 1021.61 1021.61 1021.65 1021.61 1021.61 1021.57
1025.33 1025.25 1025.17 1025.13 1025.05 1024.97 1024.85 1024.77 1024.69 1024.57 1024.49 1024.37 1024.29 1024.21 1024.09 1024.01 1023.97 1023.93 1023.85 1023.77 1023.73 1023.73 1023.69 1023.57 1023.45 1023.33 1023.25 1023.13 1023.01 1022.93 1022.85 1022.77 1022.73 1022.65 1022.57 1022.45 1022.37 1022.29 1022.21 1022.13 1022.01 1021.97 1021.93 1021.93 1021.89 1021.85 1021.85 1021.85 1021.89 1021.97 1022.01 1022.01 1021.97 1021.89 1021.85 1021.81 1021.77 1021.73 1021.65 1021.65 1021.61 1021.61 1021.57 1021.57 1021.61 1021.57 1021.57 1021.53 1021.45
1025.41 1025.29 1025.21 1025.17 1025.09 1025.01 1024.89 1024.81 1024.73 1024.57 1024.45 1024.37 1024.29 1024.17 1024.09 1024.01 1023.97 1023.89 1023.85 1023.77 1023.73 1023.73 1023.69 1023.57 1023.45 1023.33 1023.25 1023.17 1023.05 1022.97 1022.85 1022.81 1022.73 1022.65 1022.53 1022.45 1022.37 1022.29 1022.25 1022.13 1022.09 1022.05 1022.01 1022.01 1021.97 1021.93 1021.93 1021.93 1022.01 1022.01 1022.01 1022.01 1021.97 1021.93 1021.85 1021.81 1021.77 1021.73 1021.69 1021.69 1021.61 1021.57 1021.57 1021.53 1021.53 1021.49 1021.45 1021.45 1021.37
1025.45 1025.37 1025.29 1025.17 1025.05 1025.01 1024.89 1024.77 1024.69 1024.57 1024.45 1024.37 1024.29 1024.21 1024.13 1024.01 1023.97 1023.93 1023.85 1023.85 1023.73 1023.69 1023.65 1023.61 1023.53 1023.45 1023.29 1023.21 1023.13 1023.01 1022.85 1022.81 1022.73 1022.61 1022.53 1022.45 1022.37 1022.33 1022.29 1022.21 1022.17 1022.13 1022.09 1022.01 1022.01 1021.97 1021.97 1022.01 1022.01 1022.01 1021.97 1021.97 1021.93 1021.93 1021.89 1021.85 1021.77 1021.73 1021.69 1021.65 1021.61 1021.57 1021.49 1021.45 1021.41 1021.37 1021.37 1021.29 1021.29
1025.49 1025.45 1025.29 1025.17 1025.09 1025.01 1024.89 1024.77 1024.65 1024.57 1024.45 1024.37 1024.33 1024.25 1024.13 1024.05 1024.01 1023.93 1023.89 1023.85 1023.77 1023.73 1023.73 1023.65 1023.57 1023.49 1023.37 1023.29 1023.17 1023.05 1022.93 1022.81 1022.73 1022.65 1022.57 1022.53 1022.49 1022.45 1022.45 1022.37 1022.29 1022.21 1022.13 1022.09 1022.01 1022.01 1022.01 1022.01 1022.01 1021.97 1021.89 1021.89 1021.89 1021.85 1021.85 1021.81 1021.77 1021.73 1021.65 1021.57 1021.57 1021.45 1021.41 1021.37 1021.29 1021.29 1021.25 1021.21 1021.17
1025.49 1025.41 1025.29 1025.17 1025.05 1024.97 1024.85 1024.73 1024.65 1024.57 1024.53 1024.45 1024.33 1024.25 1024.17 1024.09 1024.05 1024.01 1023.93 1023.85 1023.81 1023.77 1023.73 1023.65 1023.57 1023.49 1023.41 1023.29 1023.25 1023.13 1023.01 1022.85 1022.81 1022.73 1022.69 1022.69 1022.61 1022.57 1022.53 1022.45 1022.41 1022.33 1022.25 1022.17 1022.13 1022.09 1022.05 1022.01 1022.01 1021.93 1021.85 1021.85 1021.85 1021.77 1021.73 1021.73 1021.69 1021.65 1021.57 1021.53 1021.49 1021.45 1021.33 1021.29 1021.25 1021.21 1021.17 1021.13 1021.05
1025.45 1025.37 1025.29 1025.17 1025.05 1024.93 1024.85 1024.77 1024.69 1024.57 1024.53 1024.45 1024.37 1024.29 1024.21 1024.17 1024.13 1024.05 1024.01 1023.93 1023.85 1023.77 1023.73 1023.61 1023.57 1023.45 1023.37 1023.29 1023.25 1023.17 1023.05 1022.97 1022.85 1022.77 1022.73 1022.73 1022.73 1022.65 1022.57 1022.49 1022.45 1022.45 1022.37 1022.25 1022.17 1022.13 1022.09 1022.01 1021.97 1021.89 1021.85 1021.85 1021.81 1021.73 1021.73 1021.65 1021.61 1021.61 1021.57 1021.53 1021.45 1021.41 1021.29 1021.21 1021.17 1021.13 1021.05 1021.01 1020.93
1025.45 1025.33 1025.29 1025.17 1025.01 1024.93 1024.85 1024.73 1024.69 1024.61 1024.57 1024.49 1024.45 1024.37 1024.29 1024.21 1024.17 1024.09 1024.01 1023.93 1023.85 1023.81 1023.73 1023.57 1023.53 1023.45 1023.29 1023.25 1023.21 1023.17 1023.13 1023.09 1023.01 1022.85 1022.77 1022.73 1022.73 1022.69 1022.61 1022.57 1022.53 1022.45 1022.37 1022.29 1022.17 1022.13 1022.05 1022.01 1021.93 1021.85 1021.85 1021.81 1021.73 1021.69 1021.61 1021.57 1021.57 1021.53 1021.53 1021.49 1021.45 1021.37 1021.29 1021.17 1021.13 1021.09 1021.01 1020.97 1020.89
1025.45 1025.33 1025.29 1025.17 1025.01 1024.93 1024.85 1024.77 1024.73 1024.69 1024.65 1024.57 1024.49 1024.45 1024.37 1024.29 1024.17 1024.13 1024.01 1023.97 1023.85 1023.77 1023.65 1023.57 1023.49 1023.41 1023.29 1023.25 1023.17 1023.13 1023.13 1023.09 1023.05 1023.01 1022.89 1022.77 1022.73 1022.65 1022.61 1022.57 1022.53 1022.45 1022.33 1022.21 1022.05 1021.89 1021.85 1021.85 1021.81 1021.77 1021.73 1021.73 1021.69 1021.61 1021.57 1021.49 1021.45 1021.45 1021.45 1021.45 1021.41 1021.33 1021.29 1021.21 1021.13 1021.05 1021.01 1020.93 1020.85
1025.45 1025.33 1025.25 1025.17 1025.05 1024.97 1024.85 1024.85 1024.77 1024.73 1024.65 1024.57 1024.53 1024.49 1024.41 1024.29 1024.21 1024.13 1024.01 1023.97 1023.85 1023.73 1023.61 1023.53 1023.45 1023.37 1023.29 1023.29 1023.17 1023.13 1023.09 1023.05 1023.01 1023.01 1022.97 1022.89 1022.77 1022.69 1022.57 1022.57 1022.45 1022.37 1022.25 1022.05 1021.93 1021.77 1021.69 1021.65 1021.61 1021.65 1021.69 1021.69 1021.65 1021.61 1021.57 1021.49 1021.45 1021.45 1021.45 1021.41 1021.37 1021.33 1021.33 1021.29 1021.17 1021.09 1021.01 1020.97 1020.89
1025.45 1025.33 1025.25 1025.13 1025.05 1024.97 1024.89 1024.85 1024.77 1024.69 1024.61 1024.57 1024.57 1024.45 1024.37 1024.25 1024.17 1024.09 1024.01 1023.93 1023.81 1023.69 1023.57 1023.45 1023.41 1023.37 1023.29 1023.29 1023.25 1023.17 1023.13 1023.01 1022.97 1022.93 1022.93 1022.85 1022.81 1022.73 1022.65 1022.53 1022.41 1022.29 1022.13 1022.01 1021.85 1021.73 1021.61 1021.53 1021.45 1021.49 1021.57 1021.61 1021.57 1021.57 1021.57 1021.49 1021.45 1021.45 1021.45 1021.45 1021.37 1021.33 1021.33 1021.37 1021.29 1021.17 1021.13 1021.05 1020.93
1025.45 1025.33 1025.25 1025.17 1025.09 1025.01 1024.89 1024.81 1024.73 1024.65 1024.57 1024.57 1024.49 1024.45 1024.33 1024.25 1024.17 1024.09 1024.01 1023.85 1023.73 1023.61 1023.53 1023.45 1023.37 1023.33 1023.29 1023.29 1023.25 1023.21 1023.17 1023.01 1022.97 1022.85 1022.81 1022.77 1022.73 1022.73 1022.61 1022.49 1022.37 1022.29 1022.13 1021.93 1021.77 1021.65 1021.57 1021.49 1021.41 1021.33 1021.33 1021.45 1021.45 1021.45 1021.45 1021.45 1021.41 1021.41 1021.41 1021.41 1021.37 1021.29 1021.29 1021.29 1021.21 1021.17 1021.09 1021.01 1020.89
1025.41 1025.29 1025.25 1025.17 1025.13 1025.01 1024.85 1024.81 1024.73 1024.65 1024.57 1024.53 1024.45 1024.37 1024.29 1024.25 1024.17 1024.05 1023.97 1023.85 1023.73 1023.61 1023.53 1023.45 1023.33 1023.33 1023.33 1023.29 1023.25 1023.17 1023.13 1023.01 1022.89 1022.85 1022.77 1022.73 1022.69 1022.61 1022.53 1022.45 1022.33 1022.21 1022.01 1021.85 1021.73 1021.61 1021.53 1021.45 1021.33 1021.25 1021.17 1021.17 1021.29 1021.37 1021.37 1021.37 1021.37 1021.33 1021.33 1021.29 1021.25 1021.17 1021.17 1021.09 1021.01 1021.01 1020.89 1020.85 1020.73
1025.29 1025.29 1025.25 1025.17 1025.09 1024.97 1024.85 1024.81 1024.73 1024.61 1024.53 1024.45 1024.37 1024.33 1024.29 1024.25 1024.13 1024.01 1023.89 1023.81 1023.73 1023.57 1023.49 1023.45 1023.37 1023.37 1023.33 1023.29 1023.21 1023.17 1023.13 1023.01 1022.85 1022.81 1022.73 1022.73 1022.69 1022.57 1022.45 1022.37 1022.29 1022.13 1021.97 1021.81 1021.65 1021.57 1021.45 1021.41 1021.29 1021.21 1021.17 1021.05 1021.09 1021.17 1021.21 1021.29 1021.29 1021.29 1021.25 1021.17 1021.13 1021.05 1021.01 1020.97 1020.89 1020.81 1020.73 1020.65 1020.57
1025.29 1025.25 1025.21 1025.17 1025.09 1024.97 1024.85 1024.73 1024.61 1024.53 1024.45 1024.41 1024.33 1024.29 1024.29 1024.21 1024.09 1023.97 1023.85 1023.77 1023.65 1023.53 1023.41 1023.37 1023.37 1023.33 1023.29 1023.17 1023.17 1023.17 1023.05 1022.93 1022.85 1022.77 1022.73 1022.73 1022.65 1022.57 1022.45 1022.33 1022.21 1022.05 1021.89 1021.73 1021.61 1021.53 1021.45 1021.33 1021.29 1021.17 1021.09 1021.01 1021.01 1021.05 1021.17 1021.21 1021.29 1021.29 1021.25 1021.17 1021.13 1021.01 1020.97 1020.89 1020.81 1020.73 1020.65 1020.57 1020.53
1025.25 1025.21 1025.17 1025.17 1025.05 1024.93 1024.77 1024.65 1024.57 1024.49 1024.45 1024.41 1024.33 1024.29 1024.21 1024.17 1024.01 1023.85 1023.73 1023.61 1023.57 1023.45 1023.41 1023.37 1023.29 1023.29 1023.21 1023.17 1023.13 1023.05 1023.01 1022.93 1022.85 1022.73 1022.65 1022.65 1022.57 1022.53 1022.41 1022.29 1022.17 1022.05 1021.85 1021.69 1021.57 1021.45 1021.37 1021.29 1021.21 1021.17 1021.09 1021.01 1021.01 1021.13 1021.21 1021.25 1021.29 1021.29 1021.29 1021.25 1021.17 1021.09 1021.01 1020.89 1020.81 1020.73 1020.61 1020.57 1020.45
1025.17 1025.13 1025.09 1025.09 1025.01 1024.85 1024.73 1024.61 1024.57 1024.45 1024.41 1024.37 1024.29 1024.25 1024.17 1024.05 1023.93 1023.81 1023.65 1023.57 1023.49 1023.45 1023.45 1023.37 1023.33 1023.29 1023.25 1023.21 1023.09 1023.01 1022.93 1022.85 1022.73 1022.65 1022.57 1022.57 1022.53 1022.45 1022.33 1022.25 1022.13 1021.97 1021.77 1021.61 1021.49 1021.37 1021.29 1021.29 1021.21 1021.17 1021.09 1021.05 1021.09 1021.21 1021.33 1021.33 1021.37 1021.37 1021.29 1021.17 1021.09 1021.01 1020.85 1020.81 1020.73 1020.61 1020.49 1020.45 1020.41
1025.13 1025.09 1025.01 1025.01 1024.93 1024.81 1024.73 1024.61 1024.57 1024.45 1024.41 1024.33 1024.25 1024.21 1024.13 1024.01 1023.93 1023.81 1023.65 1023.53 1023.45 1023.45 1023.37 1023.29 1023.29 1023.21 1023.17 1023.09 1023.01 1022.97 1022.85 1022.77 1022.69 1022.61 1022.57 1022.49 1022.45 1022.41 1022.33 1022.21 1022.01 1021.85 1021.69 1021.57 1021.45 1021.33 1021.29 1021.25 1021.21 1021.17 1021.13 1021.13 1021.21 1021.29 1021.33 1021.37 1021.33 1021.29 1021.21 1021.09 1021.01 1020.85 1020.73 1020.65 1020.57 1020.45 1020.37 1020.29 1020.25
1025.05 1025.01 1025.01 1024.89 1024.85 1024.73 1024.69 1024.61 1024.57 1024.45 1024.41 1024.33 1024.29 1024.17 1024.09 1024.01 1023.89 1023.77 1023.65 1023.49 1023.45 1023.41 1023.33 1023.29 1023.25 1023.17 1023.13 1023.05 1022.97 1022.89 1022.81 1022.73 1022.61 1022.53 1022.45 1022.45 1022.45 1022.37 1022.29 1022.17 1022.01 1021.85 1021.65 1021.53 1021.41 1021.29 1021.29 1021.25 1021.21 1021.17 1021.17 1021.21 1021.29 1021.37 1021.37 1021.33 1021.29 1021.21 1021.13 1021.01 1020.89 1020.73 1020.61 1020.49 1020.45 1020.33 1020.29 1020.17 1020.13
1024.97 1024.97 1024.93 1024.85 1024.77 1024.73 1024.65 1024.61 1024.57 1024.45 1024.41 1024.37 1024.29 1024.17 1024.09 1023.97 1023.81 1023.69 1023.57 1023.45 1023.45 1023.45 1023.41 1023.33 1023.29 1023.25 1023.17 1023.05 1022.93 1022.81 1022.73 1022.65 1022.57 1022.45 1022.41 1022.41 1022.41 1022.33 1022.29 1022.13 1022.01 1021.85 1021.65 1021.49 1021.37 1021.29 1021.25 1021.25 1021.21 1021.21 1021.21 1021.29 1021.33 1021.37 1021.37 1021.33 1021.29 1021.17 1021.09 1020.97 1020.85 1020.73 1020.57 1020.49 1020.33 1020.25 1020.13 1020.13 1020.01
1024.85 1024.85 1024.85 1024.81 1024.73 1024.69 1024.61 1024.57 1024.53 1024.49 1024.41 1024.33 1024.25 1024.17 1024.01 1023.89 1023.73 1023.57 1023.49 1023.45 1023.45 1023.41 1023.37 1023.29 1023.29 1023.25 1023.17 1023.01 1022.85 1022.73 1022.65 1022.61 1022.57 1022.45 1022.41 1022.41 1022.37 1022.29 1022.25 1022.13 1022.01 1021.85 1021.73 1021.49 1021.37 1021.29 1021.21 1021.21 1021.21 1021.25 1021.25 1021.29 1021.33 1021.37 1021.37 1021.33 1021.25 1021.17 1021.09 1020.97 1020.85 1020.69 1020.57 1020.45 1020.29 1020.21 1020.13 1020.01 1019.89
1024.73 1024.73 1024.73 1024.73 1024.69 1024.61 1024.57 1024.53 1024.53 1024.45 1024.37 1024.29 1024.17 1024.01 1023.89 1023.81 1023.73 1023.57 1023.45 1023.41 1023.41 1023.37 1023.29 1023.21 1023.17 1023.09 1022.97 1022.89 1022.85 1022.73 1022.65 1022.61 1022.57 1022.45 1022.41 1022.33 1022.33 1022.29 1022.21 1022.13 1022.05 1021.93 1021.73 1021.49 1021.33 1021.29 1021.21 1021.17 1021.17 1021.21 1021.29 1021.33 1021.37 1021.41 1021.41 1021.33 1021.25 1021.17 1021.09 1020.97 1020.81 1020.69 1020.53 1020.41 1020.29 1020.21 1020.09 1019.93 1019.73
1024.65 1024.65 1024.65 1024.69 1024.65 1024.61 1024.57 1024.49 1024.45 1024.41 1024.29 1024.21 1024.09 1023.97 1023.85 1023.77 1023.65 1023.49 1023.37 1023.29 1023.29 1023.17 1023.13 1023.05 1022.97 1022.85 1022.77 1022.81 1022.85 1022.81 1022.69 1022.61 1022.57 1022.45 1022.41 1022.29 1022.25 1022.21 1022.17 1022.13 1022.05 1021.97 1021.77 1021.57 1021.37 1021.29 1021.21 1021.17 1021.17 1021.17 1021.29 1021.41 1021.41 1021.41 1021.37 1021.33 1021.29 1021.17 1021.05 1020.97 1020.81 1020.65 1020.49 1020.37 1020.25 1020.13 1020.01 1019.85 1019.57
1024.57 1024.57 1024.61 1024.61 1024.61 1024.57 1024.53 1024.45 1024.45 1024.33 1024.25 1024.17 1024.05 1023.93 1023.81 1023.69 1023.53 1023.41 1023.29 1023.17 1023.09 1023.01 1022.93 1022.89 1022.81 1022.73 1022.73 1022.77 1022.85 1022.81 1022.73 1022.61 1022.53 1022.45 1022.41 1022.29 1022.21 1022.13 1022.13 1022.21 1022.13 1022.01 1021.85 1021.61 1021.45 1021.29 1021.17 1021.17 1021.13 1021.13 1021.25 1021.45 1021.45 1021.41 1021.37 1021.33 1021.25 1021.17 1021.01 1020.89 1020.73 1020.57 1020.41 1020.25 1020.13 1020.01 1019.89 1019.73 1019.49
1024.57 1024.57 1024.57 1024.57 1024.53 1024.49 1024.45 1024.45 1024.33 1024.25 1024.17 1024.09 1024.01 1023.85 1023.73 1023.57 1023.49 1023.33 1023.21 1023.13 1023.01 1022.89 1022.85 1022.85 1022.73 1022.73 1022.73 1022.73 1022.77 1022.81 1022.77 1022.65 1022.49 1022.45 1022.37 1022.33 1022.29 1022.21 1022.21 1022.29 1022.21 1022.13 1021.97 1021.77 1021.57 1021.37 1021.25 1021.21 1021.17 1021.09 1021.17 1021.37 1021.37 1021.33 1021.33 1021.29 1021.17 1021.09 1020.93 1020.81 1020.69 1020.53 1020.33 1020.13 1020.01 1019.89 1019.77 1019.61 1019.45
Wind_Speed
8 7 6 6 5 5 5 5 5 5 5 6 6 7 7 8 8 7 7 6 6 5 5 5 5 5 6 7 8 8 7 7 7 7 7 8 8 8 7 7 7 7 7 7 8 7 7 7 6 5 5 5 5 5 5 5 5 6 6 7 6 7 8 9 10 11 11 11 9
8 8 7 7 7 6 5 6 6 6 6 6 6 7 7 8 8 8 7 7 6 6 5 5 6 7 8 9 9 8 8 8 8 8 8 9 8 8 7 7 7 7 7 7 7 6 5 5 5 4 3 3 3 3 2 2 2 3 4 5 4 4 5 6 7 7 8 8 7
8 8 8 8 8 7 7 6 6 7 7 7 6 7 7 7 7 7 7 7 7 7 6 6 7 8 9 10 9 9 8 8 9 9 8 8 8 7 6 5 5 5 5 5 5 4 3 3 3 2 2 2 2 1 1 1 1 2 3 4 3 3 3 3 4 4 4 4 5
8 8 8 8 9 8 7 6 7 7 7 7 7 7 7 7 6 6 6 6 7 7 7 7 7 7 8 9 9 9 9 9 9 8 8 7 6 6 5 4 4 3 3 3 3 3 2 2 2 2 2 2 1 1 0 0 2 2 2 2 2 2 2 2 2 2 3 3 4
7 7 7 7 7 7 7 6 7 7 7 6 6 6 6 6 5 5 5 5 5 6 6 6 6 6 6 7 8 8 8 8 7 7 6 6 5 4 3 2 2 1 1 1 1 1 2 2 1 1 1 1 1 1 1 1 2 2 2 2 2 2 2 2 2 2 2 2 3
6 6 6 6 7 6 6 6 7 6 6 6 6 6 5 5 4 4 4 4 3 3 4 4 4 4 5 5 6 6 6 6 5 5 4 4 4 3 3 2 2 1 1 1 1 1 2 2 1 1 1 1 1 0 1 1 1 2 2 2 1 1 2 2 2 2 2 2 3
6 6 7 6 7 7 6 6 6 5 5 5 6 5 4 3 3 2 2 2 2 2 2 3 3 3 3 4 3 3 3 3 3 3 3 3 3 3 4 3 3 2 2 2 2 2 1 1 1 1 1 1 1 0 0 1 1 1 1 1 1 1 1 1 1 2 2 3 3
6 6 6 6 6 6 6 6 5 5 4 4 4 3 3 2 2 1 1 1 1 1 1 2 2 3 3 3 3 2 1 1 1 2 3 3 4 4 4 4 4 3 3 3 3 2 2 1 1 1 1 1 1 1 0 0 1 1 0 1 1 1 1 1 1 1 2 3 4
5 5 6 6 5 5 5 5 5 4 4 3 2 2 1 1 1 1 1 1 0 0 0 1 2 2 2 2 1 1 0 1 2 2 3 3 4 4 5 4 4 4 4 3 3 2 2 1 1 1 1 1 1 1 1 0 1 0 0 1 1 2 2 1 1 2 2 3 5
5 5 5 5 4 4 4 4 4 3 3 2 2 1 2 2 2 2 1 1 1 1 1 1 1 1 1 1 1 1 1 2 2 3 4 4 4 5 5 4 4 4 4 3 3 2 2 1 1 1 1 1 1 1 1 0 1 0 0 1 1 2 3 2 2 2 3 3 4
5 4 4 4 4 3 3 4 3 3 3 2 2 2 2 2 2 2 2 2 2 2 2 2 2 2 2 2 2 2 2 3 3 4 4 5 5 5 5 5 5 4 4 4 3 2 2 2 2 2 2 2 1 1 0 0 1 0 1 1 1 2 3 3 3 3 2 3 4
4 4 4 3 3 3 3 3 3 3 3 3 3 3 2 2 2 2 2 2 2 2 2 2 2 2 2 2 3 3 3 4 4 4 5 5 6 6 6 5 5 5 5 5 3 2 2 2 2 2 2 2 1 0 0 1 1 0 1 1 1 2 2 3 3 3 2 2 3
3 3 3 3 3 3 3 4 3 4 4 4 4 3 3 3 3 2 2 2 2 2 2 2 2 3 3 3 3 3 4 4 4 5 5 5 6 6 6 6 6 5 5 5 3 2 2 2 3 3 3 3 1 1 0 1 1 1 0 1 1 1 2 3 3 3 2 2 3
3 3 2 2 3 3 3 4 4 4 4 4 4 4 3 3 3 2 2 2 3 3 3 3 3 3 3 3 3 4 4 4 4 5 5 6 6 6 7 6 6 6 5 4 3 2 3 3 3 4 3 3 2 1 1 1 2 2 2 2 1 2 2 3 3 2 2 2 3
2 2 2 2 3 3 3 4 4 4 4 5 4 4 4 3 3 2 2 2 3 3 3 3 4 4 4 4 4 4 4 4 5 5 5 6 6 7 7 7 7 6 5 4 3 2 3 3 3 3 3 3 2 2 2 2 3 3 3 3 3 3 3 3 3 2 2 2 2
2 2 2 3 3 3 4 4 4 4 4 5 5 4 4 3 3 2 3 3 3 3 4 4 5 4 4 4 5 5 5 5 5 5 6 6 7 7 7 7 7 6 6 5 3 3 3 3 3 3 3 3 3 3 3 4 4 4 4 4 4 4 3 3 3 3 2 2 2
2 2 3 3 4 4 4 4 4 4 5 5 5 5 4 3 3 3 3 3 3 4 5 6 5 5 4 5 5 5 4 5 5 6 6 6 7 7 7 7 6 6 5 4 4 3 4 4 3 2 2 3 3 4 4 5 5 5 5 4 4 4 4 3 3 3 3 3 3
3 3 3 4 4 5 5 5 5 5 5 6 5 4 4 3 3 3 3 4 4 4 5 6 6 5 5 6 5 5 4 5 6 6 6 7 7 7 7 7 6 5 4 3 3 4 4 4 3 2 2 3 3 4 4 4 4 4 4 4 4 4 4 4 3 3 3 3 3
3 4 4 4 5 5 6 6 6 6 5 5 5 4 4 4 4 4 4 4 4 5 5 6 6 6 6 6 6 6 5 5 6 7 7 7 7 7 7 7 6 5 4 3 3 3 4 4 3 2 3 3 3 3 3 3 3 3 4 3 3 3 3 3 3 3 3 3 3
4 4 4 5 5 6 6 6 6 5 5 5 4 4 4 4 4 4 5 5 5 5 5 6 6 6 6 6 7 6 6 5 6 6 7 7 7 7 7 6 6 5 4 3 3 3 3 3 3 3 3 4 4 4 3 3 3 3 3 3 3 3 3 3 3 3 3 3 3
4 4 4 5 5 5 6 5 5 5 5 5 5 4 4 4 4 5 5 6 6 5 5 5 6 6 6 6 6 6 6 5 6 6 6 6 6 6 6 5 6 5 4 4 3 3 3 3 3 3 3 4 4 4 3 3 2 2 3 3 3 3 4 3 3 3 3 3 4
4 4 4 5 5 6 6 6 6 5 5 5 4 4 4 4 5 5 5 5 5 5 5 5 5 5 5 5 5 6 5 5 5 5 5 5 5 5 5 4 4 4 4 4 3 3 3 3 3 3 3 3 3 3 3 3 3 3 3 3 4 4 4 4 3 3 3 4 4
4 4 4 5 5 6 6 6 6 5 5 5 4 4 4 5 5 5 5 5 4 4 4 4 4 5 5 5 4 4 4 4 5 5 5 4 4 4 4 3 3 3 4 4 3 3 3 3 3 3 3 3 4 4 4 3 3 3 3 4 4 4 4 4 4 4 4 4 5
4 4 4 5 5 6 6 6 5 5 5 5 4 4 4 5 5 5 5 5 5 5 5 4 4 4 4 4 4 3 3 3 4 5 5 4 3 3 3 3 3 3 4 4 4 4 4 3 3 3 3 4 4 4 4 4 4 4 4 4 4 4 4 4 4 4 4 4 5
4 5 5 5 6 6 6 5 5 5 5 5 4 4 4 4 4 4 4 5 6 6 6 5 5 4 4 4 4 3 3 2 3 3 4 4 4 3 3 3 3 3 4 4 6 7 7 6 5 4 3 4 4 4 4 4 4 4 4 4 4 3 4 4 4 4 4 5 5
4 5 5 6 6 6 6 5 5 5 4 4 4 4 4 4 3 3 4 4 5 5 5 5 4 4 3 3 4 3 3 2 2 2 3 3 4 4 3 3 3 3 4 5 7 8 9 8 7 5 4 3 4 4 4 4 4 4 4 4 3 3 3 4 5 5 4 4 5
4 4 5 6 6 6 6 5 4 4 4 4 5 4 4 3 3 3 3 4 5 5 5 4 3 3 3 2 3 3 3 3 2 2 2 2 3 3 3 3 3 4 4 7 9 9 9 9 9 7 6 4 4 4 4 4 4 3 3 3 3 3 3 4 5 5 5 5 6
4 4 5 5 6 6 6 5 4 4 4 4 4 4 4 3 3 3 4 4 4 4 4 4 3 2 2 2 2 3 3 3 3 2 2 2 2 2 3 3 3 4 6 8 10 10 10 10 10 9 8 6 4 4 4 4 3 3 3 3 3 3 3 3 4 5 5 6 6
4 4 4 5 6 6 5 5 5 5 4 4 4 4 4 4 4 4 4 4 4 4 4 3 3 2 2 2 3 3 3 3 3 2 2 2 2 2 3 3 4 5 7 9 10 10 10 10 10 10 10 9 5 4 3 3 3 3 3 3 3 3 3 4 4 5 5 6 6
4 3 4 5 5 5 5 5 4 4 4 4 4 4 4 4 4 4 4 4 4 4 3 3 3 3 3 3 3 3 3 3 3 2 2 2 2 3 3 3 3 5 6 9 9 10 10 10 10 10 11 11 7 4 3 3 3 3 3 3 3 3 4 4 5 5 5 5 6
4 4 4 4 5 5 5 5 4 4 4 4 4 4 4 4 4 4 4 3 4 4 4 3 3 4 4 3 3 3 3 4 3 2 2 2 2 3 3 3 4 4 6 8 9 9 9 10 10 10 10 11 7 4 2 2 2 2 3 3 3 4 4 4 5 5 6 6 6
4 3 3 4 5 5 5 5 4 4 4 4 4 4 5 4 4 4 4 4 4 4 4 4 4 5 5 4 3 3 3 3 3 3 2 2 3 3 3 4 4 4 5 7 8 8 8 9 9 10 10 10 7 4 1 1 1 2 2 3 4 4 5 5 5 5 6 6 6
4 3 3 4 5 5 5 5 4 4 4 4 4 5 5 5 5 5 5 4 4 4 4 4 5 5 5 4 4 3 3 3 3 3 3 3 3 3 3 3 3 4 5 7 7 7 7 8 8 9 9 9 6 3 2 1 1 1 2 3 4 4 5 5 5 5 6 6 6
4 3 4 4 5 5 5 5 4 4 4 4 5 5 5 5 5 5 5 4 4 3 3 4 4 4 4 3 3 4 4 4 4 3 3 2 2 2 3 3 3 4 5 7 6 6 7 7 8 8 8 7 5 3 2 1 1 2 2 3 4 4 4 5 5 5 5 6 5
4 4 4 4 5 5 5 5 4 4 4 4 5 6 5 5 5 5 5 4 3 3 3 4 3 3 3 3 3 4 4 4 4 3 3 2 2 2 2 3 3 4 6 6 6 6 6 7 7 7 7 5 3 2 2 2 2 2 3 4 4 5 5 5 5 5 5 5 5
4 4 4 5 5 5 5 4 4 4 4 5 6 6 6 5 5 5 4 3 3 3 3 4 4 4 4 4 4 4 4 4 4 3 2 2 2 2 2 3 3 5 6 6 6 6 6 6 6 6 5 4 3 2 2 2 2 2 3 4 4 5 5 5 5 5 5 5 5
5 4 4 4 5 5 4 4 4 4 5 6 6 6 6 6 5 5 3 2 2 3 3 4 5 5 5 4 4 4 4 3 3 3 3 2 2 2 2 2 3 4 5 5 5 6 6 6 6 5 4 3 2 2 2 2 2 2 3 4 5 5 6 5 5 5 5 5 6
5 4 4 4 4 4 4 4 4 5 5 6 6 5 5 5 5 4 3 2 1 2 3 4 5 5 6 5 5 4 4 3 3 3 3 3 3 2 2 2 3 4 5 5 5 6 6 6 6 5 3 2 1 1 2 2 3 3 4 5 5 5 5 5 5 5 5 6 9
5 4 4 3 4 4 4 4 5 5 5 6 6 6 6 5 4 4 3 2 2 2 3 4 5 6 6 5 5 4 4 4 3 3 3 3 3 3 2 2 2 4 5 6 6 6 7 7 6 5 3 1 1 1 1 2 3 4 4 5 5 5 5 5 5 5 5 7 11
5 3 3 3 3 4 4 5 5 5 5 5 6 6 6 5 4 4 4 3 3 3 3 4 5 6 6 4 4 4 5 5 4 3 3 4 4 3 2 1 2 4 5 7 7 7 8 9 8 7 4 2 1 0 1 2 4 5 5 5 5 5 5 5 5 5 5 6 9
3 2 2 3 3 3 4 5 5 5 5 5 6 5 5 4 4 4 4 4 4 4 4 4 5 5 5 3 3 3 5 5 4 3 3 3 3 3 2 1 3 4 5 6 8 9 10 10 10 10 8 2 1 1 1 3 4 5 6 6 5 5 5 5 5 5 5 6 6
Wind_Direction
29 27 26 22 20 18 18 18 16 15 15 16 12 8 5 6 5 5 7 10 8 5 4 9 7 6 9 18 29 35 38 40 43 44 44 43 42 41 40 40 40 39 39 40 42 43 43 42 43 43 43 42 37 33 28 18 9 9 13 15 12 10 11 12 11 10 10 11 4
26 26 25 23 21 22 22 21 19 18 19 20 16 13 12 15 15 14 14 14 9 4 3 7 9 12 16 22 28 31 33 35 37 38 39 38 36 35 36 37 37 38 40 42 44 46 48 48 51 52 52 51 50 47 42 33 27 29 30 29 22 16 14 15 12 10 9 8 1
25 25 25 25 25 26 26 25 23 22 22 22 19 19 20 23 22 21 19 17 13 11 11 14 17 20 22 25 29 31 33 33 35 36 36 35 32 32 32 34 37 39 42 46 50 55 59 62 69 76 82 88 90 90 90 89 71 62 55 47 41 32 24 18 10 7 5 3 359
26 27 27 27 29 31 32 30 28 28 28 27 24 24 27 29 28 26 23 22 21 21 21 21 24 26 27 28 29 30 32 32 32 33 32 30 27 26 27 30 34 39 46 55 66 77 87 101 111 120 129 136 130 125 96 51 63 66 65 60 52 43 33 21 9 3 359 354 355
26 28 29 31 33 36 39 39 36 35 35 33 30 29 30 30 30 29 29 32 32 31 30 31 34 35 35 35 32 31 30 29 27 25 23 20 15 10 7 9 16 28 52 89 118 132 140 145 141 141 142 140 115 74 19 12 43 53 54 50 40 30 19 7 358 352 348 344 343
27 27 29 34 38 42 44 45 44 43 42 40 39 36 33 31 32 34 38 43 47 47 48 49 51 51 49 47 41 36 32 27 22 16 8 0 349 340 332 326 311 286 256 233 217 202 184 163 142 130 129 124 99 34 351 2 37 47 48 39 23 12 1 349 339 334 333 332 323
31 31 32 35 42 46 48 46 47 47 46 45 42 40 38 36 39 46 54 64 67 69 71 74 75 76 76 71 65 56 45 30 15 358 341 325 315 310 307 300 289 280 269 262 256 247 231 185 146 143 157 170 161 176 341 2 37 52 51 22 350 340 334 315 313 319 325 325 318
36 36 36 38 46 51 52 49 48 46 45 43 41 38 34 30 36 45 57 68 80 96 104 102 96 93 93 93 92 88 77 37 329 304 294 291 293 294 295 292 288 281 275 269 264 256 242 205 167 169 183 191 181 181 199 15 59 74 63 314 304 304 300 287 299 318 330 332 328
36 35 36 38 45 52 56 54 51 49 46 40 33 19 357 340 344 356 7 4 290 292 71 73 75 78 79 82 88 96 124 265 272 275 277 280 284 287 288 288 285 279 273 267 262 251 239 213 189 188 194 195 190 190 187 141 109 107 141 285 303 310 314 309 324 334 339 341 337
37 36 36 36 38 45 52 53 49 46 40 28 5 334 313 309 317 320 315 295 306 331 357 14 23 29 30 22 354 313 285 277 276 279 281 284 285 284 284 282 276 272 267 261 254 246 238 226 210 207 207 204 197 194 185 127 108 89 341 306 322 327 328 327 335 341 345 342 336
40 40 39 37 31 34 39 41 33 24 15 360 339 321 306 307 309 305 302 304 328 340 342 333 338 343 341 329 312 300 291 288 287 290 292 294 293 292 289 283 273 265 259 252 240 231 224 230 224 224 226 229 215 198 161 95 80 47 346 320 331 334 333 328 332 336 338 333 328
43 41 38 34 25 24 26 26 14 3 354 343 333 320 305 296 294 296 301 316 327 320 306 299 309 314 313 307 301 297 294 294 294 295 297 299 301 301 299 293 281 270 259 250 236 218 208 217 225 230 235 241 238 209 128 105 94 51 337 317 324 329 325 319 318 319 321 322 323
42 38 32 22 14 14 14 11 1 351 343 334 325 314 301 288 283 289 299 313 310 299 289 285 291 295 296 293 293 294 295 294 295 295 297 299 301 302 302 299 291 281 271 257 237 211 199 211 222 229 232 238 238 218 160 151 153 167 225 281 295 299 299 298 300 303 309 318 319
38 30 20 5 2 3 2 358 350 342 334 325 316 308 300 292 285 283 289 297 296 292 288 285 283 282 283 284 286 287 287 287 288 289 291 293 295 297 298 297 295 291 286 275 249 215 202 213 223 226 228 229 227 218 197 185 185 188 196 211 231 252 265 273 280 288 301 311 310
23 10 354 346 351 352 351 346 338 331 324 316 309 304 303 300 292 286 284 287 289 289 289 290 285 282 281 283 285 283 281 281 281 283 285 288 290 291 293 295 298 300 300 295 278 246 226 225 230 231 229 222 215 210 208 206 203 201 200 201 209 223 238 253 261 268 276 284 291
360 342 333 337 342 341 338 331 326 321 316 309 305 304 304 304 300 298 295 293 291 292 293 291 289 288 289 290 289 287 284 281 280 281 283 285 287 290 293 297 302 304 305 300 291 277 264 255 250 245 237 223 208 205 206 209 209 208 206 205 208 214 223 234 241 245 246 250 260
339 329 326 332 333 329 324 318 315 312 309 305 304 304 305 306 308 307 302 297 296 297 297 294 294 297 301 302 299 297 295 293 291 289 288 288 290 293 297 301 303 304 303 298 290 283 278 275 271 260 241 222 210 206 206 208 209 209 210 210 211 213 218 223 227 230 234 239 246
330 324 322 325 323 319 314 310 309 307 305 304 305 305 306 310 312 310 305 299 299 298 299 299 302 306 309 310 309 309 308 307 304 301 299 298 299 301 303 304 305 306 304 297 288 283 282 282 281 266 239 224 217 214 212 211 212 213 214 215 217 218 220 223 222 223 227 237 250
325 321 320 319 315 312 309 307 306 305 304 304 305 307 310 312 313 311 309 304 301 301 302 305 309 312 314 315 315 316 316 315 312 310 308 308 309 310 311 311 312 312 309 298 288 283 283 284 273 249 225 219 221 224 226 226 224 223 224 224 226 228 230 229 227 226 229 239 254
321 318 317 315 312 310 308 306 305 305 305 306 307 309 310 310 312 311 308 304 303 305 309 311 313 314 315 317 320 322 322 321 321 319 318 318 319 319 318 318 318 315 309 298 287 281 277 271 251 232 217 213 216 222 230 237 239 240 241 241 242 242 241 240 238 238 240 246 255
315 313 312 312 312 310 308 305 306 307 307 307 306 306 307 310 312 310 307 304 308 312 315 314 313 313 314 317 321 322 323 324 326 325 323 324 322 321 319 320 318 314 307 297 286 276 267 257 242 227 216 213 217 221 226 231 239 247 252 254 253 251 249 246 243 244 247 249 253
307 308 310 312 312 310 308 306 308 309 309 307 306 308 311 314 314 313 311 311 316 318 317 313 311 310 310 313 316 318 320 322 324 324 324 325 323 319 317 317 315 310 301 291 281 269 260 253 243 232 220 215 222 225 226 223 229 240 249 256 256 256 253 248 244 243 244 246 248
301 305 309 312 313 312 311 310 312 313 313 311 312 314 318 320 319 319 320 321 320 318 313 309 307 307 307 309 314 318 321 322 323 323 324 327 323 317 314 314 310 299 289 280 270 260 252 250 246 238 227 219 224 226 226 222 223 230 240 250 255 258 258 254 249 247 248 249 248
301 305 309 313 316 316 316 316 319 319 317 315 317 319 321 322 322 323 323 321 318 314 311 308 307 307 309 313 318 321 323 322 322 322 322 324 321 314 309 308 299 286 278 274 267 256 245 237 237 233 229 224 225 225 224 222 221 223 230 239 250 260 266 268 264 261 260 260 257
301 307 312 317 318 318 319 321 321 319 316 314 316 318 319 319 319 320 321 320 316 314 311 309 308 310 315 320 322 322 317 311 309 310 314 318 316 312 309 308 298 288 281 279 275 266 254 240 234 229 226 225 229 231 232 231 227 225 227 231 241 257 273 284 284 280 274 269 266
303 310 315 317 318 319 319 320 317 314 313 314 315 315 312 308 310 314 317 316 311 310 308 309 309 311 314 320 321 319 314 301 291 290 296 305 312 315 317 314 306 299 293 291 286 277 266 253 246 237 226 223 230 236 241 245 239 235 232 233 237 249 268 285 291 292 291 285 279
305 311 313 314 317 317 316 314 315 316 316 316 313 307 301 297 302 308 310 306 302 302 303 305 305 304 304 309 313 311 306 298 290 281 278 284 303 313 316 314 309 304 300 300 296 290 280 270 262 252 238 224 229 235 241 249 249 246 242 243 243 247 258 272 282 290 295 297 292
300 304 308 313 315 314 313 315 319 320 317 312 304 298 292 292 297 300 299 295 297 301 304 305 301 298 299 306 302 296 291 289 286 283 277 275 288 300 305 306 304 303 304 307 306 302 295 287 280 271 259 238 233 234 241 251 257 257 254 251 251 254 256 262 271 279 285 288 288
288 296 305 311 310 310 312 318 319 316 310 302 295 290 288 289 292 293 293 295 299 302 303 302 303 309 310 303 295 289 285 280 279 281 286 294 300 301 298 296 298 303 309 316 320 320 317 311 303 295 288 279 259 243 241 252 259 263 261 256 253 253 256 259 262 264 267 269 272
280 289 297 302 304 306 309 312 310 306 301 296 292 289 287 287 290 291 293 295 295 293 291 293 302 303 299 290 289 287 285 279 276 277 289 304 304 301 295 293 295 303 314 325 335 340 341 339 333 324 316 312 292 264 245 248 254 259 261 260 258 257 258 260 262 262 262 262 264
275 281 288 294 298 301 302 302 302 301 300 300 294 288 284 283 286 287 287 286 287 288 290 296 300 297 292 286 281 276 275 276 278 277 275 279 283 285 285 288 291 301 315 331 345 353 356 357 353 348 341 334 323 301 262 250 253 260 267 273 275 276 274 274 273 272 271 270 272
270 276 283 290 293 295 296 298 301 304 304 302 294 286 280 276 278 280 281 282 288 294 300 304 303 302 299 296 288 276 270 270 272 267 260 254 262 269 276 283 288 300 318 337 350 359 4 6 5 2 358 354 352 345 317 276 273 279 287 289 288 287 286 286 285 283 281 280 279
267 273 280 285 287 290 293 298 303 306 307 303 292 282 277 276 281 286 290 292 293 297 300 301 300 299 296 291 283 275 269 263 260 257 254 248 254 262 273 283 287 303 322 342 354 3 8 12 13 13 12 12 13 17 21 17 345 316 301 294 288 285 284 284 285 286 285 284 281
265 272 278 281 283 287 292 298 303 308 308 301 290 283 279 282 290 294 297 298 298 297 296 294 291 286 279 266 258 259 261 262 258 256 254 252 256 263 273 283 287 308 327 346 357 5 12 18 22 24 24 24 27 31 31 19 350 324 307 299 292 287 285 283 282 282 282 281 278
262 268 275 279 282 286 291 298 304 308 306 299 292 288 287 288 292 294 294 294 298 302 301 297 294 288 277 261 249 246 251 259 259 257 254 253 257 266 277 287 290 310 328 346 0 8 15 23 30 34 34 34 34 33 26 7 340 319 307 300 297 293 291 289 285 282 278 275 275
255 259 267 275 280 285 291 297 304 308 305 299 294 293 293 293 292 290 290 291 301 307 307 306 307 304 295 280 264 250 243 247 255 258 256 249 250 262 279 290 293 308 322 341 1 11 17 27 37 41 41 39 33 26 16 358 330 312 303 300 297 294 292 290 287 283 279 277 278
250 249 255 268 277 283 289 295 304 306 303 299 295 294 293 294 292 289 287 290 304 309 308 308 307 301 294 283 274 262 250 245 254 261 262 250 239 246 269 288 292 300 310 328 358 10 16 27 41 48 48 39 25 11 358 342 323 310 305 301 296 292 290 288 286 283 282 281 285
248 244 247 260 273 281 288 296 302 301 299 297 295 294 294 293 290 285 279 265 276 288 294 297 294 290 285 279 278 277 273 265 259 258 257 251 235 229 238 278 287 291 299 318 350 5 12 20 39 53 61 53 26 4 348 336 324 314 308 302 298 295 292 289 286 284 283 282 292
250 244 244 256 271 282 291 298 298 297 295 295 296 296 295 293 287 277 264 241 239 250 264 273 278 279 281 283 287 291 290 280 265 255 252 252 242 228 220 244 275 286 297 314 341 358 7 11 24 43 67 84 54 1 343 334 322 315 310 305 304 301 298 294 290 288 287 286 297
254 250 250 260 275 287 294 297 296 294 293 295 297 296 295 290 280 271 261 248 245 249 256 266 275 280 284 289 291 293 292 289 276 261 254 259 262 258 249 241 274 287 300 315 337 355 6 8 10 19 37 92 84 1 342 333 324 319 314 311 309 308 307 304 299 296 294 293 299
264 263 266 273 284 290 295 296 295 295 296 298 297 294 290 285 276 271 268 268 269 272 276 279 284 288 291 293 289 289 289 291 284 277 273 280 293 304 310 294 294 298 306 318 342 359 9 10 5 5 8 27 35 6 343 337 329 323 318 315 312 312 312 312 310 306 303 301 301